AB1IG Weather Reports


time (UTC)temp
C
wind
direction
speed
KPH
gust
KPH
rain 1hr
cm
rain 24hr
cm
rain mn
cm
humidity
%
barometer
mb
20260507023020 13 47 1.6 9.7 0.00 0.00 0.00 55 1015.6
20260507021517 14 52 3.2 12.9 0.00 0.00 0.00 53 1015.5
20260507020019 14 34 3.2 9.7 0.00 0.00 0.00 53 1015.2
20260507014525 15 15 4.8 12.9 0.00 0.00 0.00 52 1015.1
20260507013032 15 37 6.4 16.1 0.00 0.00 0.00 52 1014.8
20260507011530 15 25 6.4 12.9 0.00 0.00 0.00 50 1014.7
20260507010015 15 36 4.8 11.3 0.00 0.00 0.00 50 1014.6
20260507004517 16 65 4.8 11.3 0.00 0.00 0.00 49 1014.6
20260507003014 16 46 8.0 12.9 0.00 0.00 0.00 49 1014.5
20260507001623 16 29 4.8 11.3 0.00 0.00 0.00 49 1014.4
20260507000023 16 54 3.2 14.5 0.00 0.00 0.00 49 1014.3
20260506234513 16 22 3.2 12.9 0.00 0.00 0.00 50 1014.3
20260506233011 16 40 1.6 9.7 0.00 0.00 0.00 49 1014.1
20260506231513 17 64 0.0 9.7 0.00 0.00 0.00 48 1013.9
20260506230010 17 19 1.6 11.3 0.00 0.00 0.00 48 1013.9
20260506224509 17 351 6.4 16.1 0.00 0.00 0.00 47 1013.6
20260506223007 17 43 4.8 16.1 0.00 0.00 0.00 48 1013.4
20260506221510 18 51 3.2 12.9 0.00 0.00 0.00 46 1013.3
20260506220007 18 24 8.0 12.9 0.00 0.00 0.00 46 1013.4
20260506214506 18 8 3.2 11.3 0.00 0.00 0.00 48 1013.4
20260506213003 17 323 3.2 20.9 0.00 0.00 0.00 49 1013.6
20260506211600 17 22 3.2 12.9 0.00 0.00 0.00 51 1013.9
20260506211501 17 49 1.6 12.9 0.00 0.00 0.00 51 1013.8
20260506210121 17 97 4.8 14.5 0.00 0.00 0.00 51 1014.0
20260506204558 16 40 3.2 12.9 0.00 0.00 0.00 53 1014.0
20260506203102 16 57 6.4 16.1 0.00 0.00 0.00 53 1014.1
20260506201557 16 39 6.4 16.1 0.00 0.00 0.00 53 1014.3
20260506200137 16 29 3.2 14.5 0.00 0.00 0.00 53 1014.4
20260506194603 16 29 8.0 17.7 0.00 0.00 0.00 53 1014.5
20260506193052 15 47 4.8 14.5 0.00 0.00 0.00 55 1014.6
20260506191552 15 30 3.2 14.5 0.00 0.00 0.00 56 1014.8
20260506190051 15 66 6.4 12.9 0.00 0.00 0.00 54 1014.9
20260506184553 15 26 3.2 17.7 0.00 0.00 0.00 55 1014.9
20260506183052 15 53 3.2 12.9 0.00 0.00 0.00 56 1015.0
20260506181549 16 222 3.2 12.9 0.00 0.00 0.00 52 1015.2
20260506180053 16 62 3.2 11.3 0.00 0.00 0.00 53 1015.3
20260506174546 15 49 6.4 16.1 0.00 0.00 0.00 56 1015.5
20260506173050 14 308 6.4 19.3 0.00 0.00 0.00 55 1015.6
20260506171551 15 54 4.8 14.5 0.00 0.00 0.00 55 1015.6
20260506170044 14 105 3.2 17.7 0.00 0.00 0.00 56 1015.6
20260506164543 15 32 4.8 11.3 0.00 0.00 0.00 54 1015.6
20260506163046 14 165 4.8 14.5 0.00 0.00 0.00 57 1015.9
20260506161548 13 159 4.8 12.9 0.00 0.00 0.00 59 1015.9
20260506160032 12 166 3.2 14.5 0.00 0.00 0.00 63 1015.8
20260506154529 12 30 8.0 22.5 0.00 0.00 0.00 64 1015.7
20260506153025 11 41 3.2 17.7 0.00 0.00 0.00 69 1015.3
20260506151522 10 359 6.4 16.1 0.00 0.00 0.00 71 1015.5
20260506150024 10 41 11.3 19.3 0.00 0.00 0.00 73 1015.4
20260506144516 10 41 8.0 16.1 0.00 0.00 0.00 75 1015.1
20260506143020 10 43 8.0 17.7 0.00 0.00 0.00 76 1014.7
20260506141512 9 23 8.0 19.3 0.00 0.00 0.00 76 1014.7
20260506140011 8 39 6.4 22.5 0.00 0.00 0.00 78 1014.8
20260506134520 8 29 8.0 19.3 0.00 0.00 0.00 79 1015.0
20260506133011 8 31 6.4 20.9 0.00 0.00 0.00 80 1014.8
20260506131507 8 75 6.4 14.5 0.00 0.00 0.00 81 1015.0
20260506130007 8 330 6.4 17.7 0.00 0.00 0.00 81 1014.8
20260506124508 8 65 4.8 12.9 0.00 0.00 0.00 82 1014.6
20260506123002 8 53 8.0 20.9 0.00 0.00 0.00 82 1014.3
20260506121608 8 39 6.4 19.3 0.00 0.00 0.00 83 1014.0
20260506114557 8 31 4.8 12.9 0.00 0.00 0.00 83 1013.5
20260506113055 8 100 4.8 16.1 0.00 0.00 0.00 82 1013.3
20260506111610 8 51 4.8 19.3 0.00 0.00 0.00 81 1013.1
20260506110052 8 32 4.8 12.9 0.00 0.00 0.00 81 1013.0
20260506104549 8 39 4.8 12.9 0.00 0.00 0.00 80 1013.2
20260506103047 8 39 3.2 11.3 0.00 0.00 0.00 79 1013.8
20260506101546 8 63 3.2 9.7 0.00 0.00 0.00 79 1013.2
20260506100044 8 46 1.6 8.0 0.00 0.00 0.00 79 1013.4
20260506094542 8 23 1.6 11.3 0.00 0.00 0.00 78 1013.1
20260506093038 8 50 6.4 11.3 0.00 0.00 0.00 78 1012.4
20260506091540 8 44 3.2 11.3 0.00 0.00 0.00 76 1012.2
20260506090034 8 70 3.2 14.5 0.00 0.00 0.00 76 1012.1
20260506084532 8 34 3.2 9.7 0.00 0.00 0.00 75 1012.0
20260506083032 8 24 4.8 14.5 0.00 0.00 0.00 75 1011.7
20260506081531 8 44 3.2 14.5 0.00 0.00 0.00 74 1011.2
20260506073120 8 47 4.8 17.7 0.00 0.00 0.00 73 1010.5
20260506071518 8 36 4.8 14.5 0.00 0.00 0.00 73 1010.4
20260506061513 8 56 4.8 12.9 0.00 0.00 0.00 72 1010.6
20260506050109 8 46 6.4 14.5 0.00 0.00 0.00 71 1010.1
20260506044601 8 57 8.0 16.1 0.00 0.00 0.00 72 1010.0
20260506043058 8 38 4.8 19.3 0.00 0.00 0.00 74 1010.3
20260506041602 8 95 8.0 14.5 0.00 0.00 0.00 76 1010.2
20260506040052 8 41 9.7 19.3 0.00 0.00 0.00 77 1010.1
20260506034557 8 45 6.4 17.7 0.00 0.00 0.00 79 1010.0
20260506033049 8 22 8.0 16.1 0.00 0.00 0.00 80 1010.0
20260506031546 8 24 9.7 20.9 0.00 0.00 0.00 81 1009.3
20260506030044 8 246 11.3 17.7 0.00 0.00 0.00 82 1008.7
20260506024550 8 41 11.3 19.3 0.00 0.00 0.00 82 1009.0